Regional Weather Roundup
Issued by NWS

Home | Current Version | Previous Version | Graphics & Text | Print | Product List | Glossary On
Versions: 1 2 3 4 5 6 7 8 9 10 11 12 13 14 15 16 17 18 19 20 21 22 23 24 25 26 27 28 29 30 31 32 33 34 35 36 37 38 39 40 41 42 43 44 45 46 47 48 49 50
180
ASUS43 KIND 281109
RWRIN

WEATHER ROUNDUP FOR INDIANA
NATIONAL WEATHER SERVICE INDIANAPOLIS IN
700 AM EDT THU JUL 28 2016

NOTE: "FAIR" INDICATES FEW OR NO CLOUDS BELOW 12,000 FEET WITH NO
SIGNIFICANT WEATHER AND/OR OBSTRUCTIONS TO VISIBILITY.

* - STATION DOES NOT REPORT WEATHER SUCH AS PRECIPITATION OR FOG.

+ - STATION NOT QUALITY CONTROLLED BY THE NATIONAL WEATHER SERVICE.
    USE DATA WITH CAUTION...ESPECIALLY DEWPOINT AND RELATIVE
    HUMIDITY OBSERVATIONS.

INZ001>003-010>013-019-020-281200-
NORTHWEST INDIANA

CITY           SKY/WX    TMP DP  RH WIND       PRES   REMARKS
GARY /AIRPORT/ MOCLDY    66  66 100 CALM      29.91R
KNOX *+        MOCLDY    63  63 100 CALM      29.92R
LA PORTE +     PTCLDY   N/A N/A N/A CALM      29.93R
MICHIGAN CITY+ PTCLDY    64  64 100 CALM      29.92S FOG
MONTICELLO +   MOCLDY    68  64  88 CALM      29.91R
RENSSELAER +   MOCLDY    66  66 100 CALM      29.92R FOG
VALPARAISO     PTCLDY    66  64  93 N3        29.92R

$$

LMZ046-743>745-281200-
SOUTHERN LAKE MICHIGAN

STATION/POSITION TIME  TEMP    WIND        PRES    WAVE
                       AIR SEA DIR/SP/G            HT
                 (UTC) (F)     (DEG/KT/KT) (MB)    (FT)
BURNS HARBOR     1002   71     180/  4/  5 1013.2S
MICHIGAN CITY    1000   72     140/  4/  4   N/A
5NW MICH CITY    1100   74 77  150/  4/  4   N/A     0

$$

INZ004-005-014>016-021>024-281200-
NORTH CENTRAL INDIANA

CITY           SKY/WX    TMP DP  RH WIND       PRES   REMARKS
ELKHART        CLOUDY    66  66 100 CALM      29.93
GOSHEN         CLOUDY    66  62  87 CALM      29.93R
LOGANSPORT +   CLOUDY    64  64 100 CALM      29.92R
PERU/GRISSOM   MOCLDY    69  68  97 CALM      29.90R
ROCHESTER +    CLOUDY    70  70 100 CALM      29.93R
SOUTH BEND     PTCLDY    66  64  93 CALM      29.92R
WARSAW +       CLOUDY    66  64  94 CALM      29.93R

$$

INZ006>009-017-018-025>027-281200-
NORTHEAST INDIANA

CITY           SKY/WX    TMP DP  RH WIND       PRES   REMARKS
ANGOLA *+        N/A     64  64 100 CALM      29.93R
AUBURN +       CLOUDY    68  63  83 CALM      29.92S
FORT WAYNE     CLOUDY    67  64  90 CALM      29.92R
HUNTINGTON +   MOCLDY    67  65  96 CALM      29.92R

$$

INZ028-029-035-036-043>045-051>053-281200-
WEST CENTRAL INDIANA

CITY           SKY/WX    TMP DP  RH WIND       PRES   REMARKS
CRAWFORDSVL +  CLOUDY    67  67 100 CALM      29.92R
GREENCASTLE +  CLOUDY    70  70 100 CALM      29.92S
LAFAYETTE      CLOUDY    67  67 100 CALM      29.91R FOG
TERRE HAUTE    CLOUDY    74  71  91 CALM      29.91R

$$

INZ030>032-037>040-046>048-054>057-064-065-281200-
CENTRAL INDIANA

CITY           SKY/WX    TMP DP  RH WIND       PRES   REMARKS
COLUMBUS       LGT RAIN  72  72 100 W7        29.93
FISHERS *+     CLOUDY    68  68 100 CALM      29.92
INDIANAPOLIS   CLOUDY    73  68  84 CALM      29.93R
-EAGLE CREEK   CLOUDY    74  67  78 CALM      29.91R
KOKOMO *+      MOCLDY    66  61  82 CALM      29.92R
MARION +       CLOUDY    65  65  97 CALM      29.93R FOG
MT COMFORT *+  CLOUDY    68  68 100 S3        29.93R
SHELBYVILLE    MOCLDY    73  70  90 SW3       29.91R
ZIONSVILLE +   CLOUDY    67  66  96 CALM      29.93S

$$

INZ033-034-041-042-049-050-058-059-281200-
EAST CENTRAL INDIANA

CITY           SKY/WX    TMP DP  RH WIND       PRES   REMARKS
MUNCIE         CLOUDY    71  67  87 CALM      29.92R

$$

INZ060-061-067>069-081>083-085>088-281200-
SOUTHWEST INDIANA

CITY           SKY/WX    TMP DP  RH WIND       PRES   REMARKS
EVANSVILLE     CLOUDY    73  71  93 CALM      29.92R
HUNTINGBURG *+ CLOUDY    73  70  88 CALM      29.92S
WASHINGTON +   CLOUDY    73  73 100 MISG      29.91R FOG

$$

INZ062-063-066-070>080-084-089>092-281200-
SOUTH CENTRAL AND SOUTHEAST INDIANA

CITY           SKY/WX    TMP DP  RH WIND       PRES   REMARKS
BLOOMINGTON    CLOUDY    72  70  93 SE3       29.92S
MADISON *+     CLOUDY    72  70  94 CALM      29.95S
NORTH VERNON + RAIN     N/A N/A N/A CALM      29.92F
SEYMOUR +      DRIZZLE   72  72 100 SW3       29.91F

$$





USA.gov is the U.S. government's official web portal to all federal, state and local government web resources and services.